Location: Freistadt
(48.5112°N, 14.5013°E)
Time: 09:53:21
(UTC+02:00)

PCSat - Pass Details

Date: 04 April 2023
Orbit: 783 x 794 km, 67.1° (Epoch: 29 May)

Event Time Altitude Azimuth Distance (km) Brightness Sun altitude
Rises 20:04:44 0° 313° (NW) 3,295 14.0 -5.4°
Reaches altitude 10° 20:09:37 10° 352° (N) 2,369 12.4 -6.2°
Maximum altitude 20:10:44 11° 4° (N) 2,328 12.2 -6.4°
Drops below altitude 10° 20:11:52 10° 16° (NNE) 2,369 12.1 -6.5°
Sets 20:16:46 0° 55° (NE) 3,301 12.4 -7.3°
